[[{"header":{"parameterUnit":"m.s-1","parameterCategory":1,"la1":30.2991,"la2":30.254,"lo1":-89.0895,"lo2":-89.0444,"dy":0.0017,"dx":0.0017,"nx":28,"ny":28,"refTime":"2025-01-25T03:00:00:Z","depth":0,"parameterNumber":2,"parameterNumberName":"U-component_of_WINDS"},"data":[0,0,0,0,0,0,0,0,0,0,0,0,0,0,0,0,0,0,0,0,0,0,0,0,0,0,0,0,0,0,0,0,0,0,0,0,0,0,0,0,0,0,0,0,0,0,0,0,0,0,0,0,0,0,0,0,0,0,-0.3415,-0.3415,0,-0.3396,-0.3396,-0.3396,-0.3338,-0.3336,-0.3335,-0.3334,-0.3318,-0.3318,-0.3319,0,0,0,0,0,0,0,0,0,0,0,0,0,-0.34,-0.3401,-0.3415,-0.3414,-0.3414,-0.3397,-0.3396,-0.3396,-0.3338,-0.3336,-0.3335,-0.3333,-0.3317,-0.3318,-0.3319,0,0,0,0,0,0,0,0,0,0,0,0,0,-0.3397,-0.3401,-0.3415,-0.3383,-0.338,-0.3397,-0.3396,-0.3396,-0.3338,-0.3336,-0.3334,-0.3332,-0.3317,-0.3318,-0.3319,-0.3366,0,0,-0.3323,-0.3323,0,0,0,0,0,0,0,0,-0.3397,-0.3398,-0.3388,-0.3385,-0.3382,-0.3367,-0.3385,-0.3386,-0.3339,-0.3354,-0.3334,-0.3331,-0.3336,-0.3335,-0.3336,-0.3365,-0.3364,-0.3323,-0.3324,-0.3324,-0.3325,0,0,0,0,0,0,0,-0.3398,-0.3398,-0.3408,-0.3388,-0.3384,-0.337,-0.3367,-0.3385,-0.3356,-0.3353,-0.3348,-0.3347,-0.3334,-0.3335,-0.3335,-0.3364,-0.3323,-0.3324,-0.3325,-0.3325,-0.343,-0.3432,0,0,0,0,0,0,-0.3402,-0.3399,-0.3408,-0.3407,-0.3385,-0.3372,-0.3369,-0.3374,-0.3356,-0.3351,-0.3348,-0.3344,-0.3334,-0.3334,-0.3335,-0.3389,-0.3324,-0.3325,-0.3326,-0.3428,-0.3431,-0.3433,0,0,0,0,0,0,-0.3402,-0.3403,-0.3409,-0.3402,-0.3401,-0.3374,-0.338,-0.3375,-0.3376,-0.3353,-0.3348,-0.3355,-0.3333,-0.3333,-0.3358,-0.3387,-0.3326,-0.3327,-0.3426,-0.3429,-0.3432,-0.3497,0,0,0,0,0,0,-0.3402,-0.3404,-0.3421,-0.3402,-0.3402,-0.3433,-0.3382,-0.3376,-0.3378,-0.3372,-0.3358,-0.3354,-0.3331,-0.3357,-0.336,-0.3388,-0.3328,-0.3423,-0.3427,-0.3431,-0.3492,-0.3502,-0.351,0,0,0,0,0,-0.3402,-0.3441,-0.3422,-0.3424,-0.3423,-0.3435,-0.3434,-0.3407,-0.3381,-0.3398,-0.3383,-0.3354,-0.3383,-0.336,-0.3362,-0.3392,-0.3421,-0.3426,-0.343,-0.3488,-0.35,-0.351,0,0,0,0,0,0,-0.3465,-0.3438,-0.3417,-0.3451,-0.3446,-0.3425,-0.3446,-0.3421,-0.3423,-0.3418,-0.3384,-0.3381,-0.3412,-0.3404,-0.3378,-0.3435,-0.3397,-0.3403,-0.344,-0.3451,-0.346,-0.3462,-0.3329,0,0,0,0,0,-0.3483,-0.3494,-0.347,-0.3502,-0.35,-0.3474,-0.3478,-0.3457,-0.345,-0.3448,-0.3434,-0.3429,-0.3437,-0.3443,-0.3449,-0.3489,-0.3486,-0.351,-0.352,-0.3527,-0.3533,-0.3554,-0.3565,-0.3448,-0.3448,-0.3448,0,0,-0.352,-0.3507,-0.3516,-0.3515,-0.3508,-0.3521,-0.3472,-0.3488,-0.3498,-0.345,-0.3474,-0.3463,-0.3455,-0.3489,-0.3502,-0.3483,-0.3564,-0.3533,-0.3539,-0.3541,-0.356,-0.3571,-0.3581,-0.3451,-0.3451,-0.345,0,0,-0.3595,-0.3586,-0.3612,-0.3605,-0.3595,-0.3577,-0.3583,-0.3565,-0.3557,-0.3579,-0.3544,-0.3554,-0.3569,-0.3564,-0.3564,-0.3635,-0.3609,-0.3638,-0.3686,-0.3707,-0.3716,-0.3724,-0.3751,-0.3761,-0.3643,-0.3644,-0.3644,0,-0.3644,-0.3661,-0.3629,-0.3647,-0.3647,-0.3603,-0.363,-0.3625,-0.3618,-0.362,-0.3597,-0.3614,-0.3605,-0.3637,-0.3654,-0.3655,-0.3662,-0.3641,-0.3717,-0.3725,-0.3732,-0.3757,-0.3767,-0.3647,-0.3647,-0.3646,-0.3646,0,-0.3722,-0.3734,-0.3756,-0.3749,-0.3752,-0.3774,-0.3746,-0.3752,-0.3731,-0.3715,-0.3738,-0.3726,-0.3729,-0.3734,-0.3713,-0.3763,-0.3751,-0.3723,-0.3685,-0.3748,-0.3771,-0.378,-0.3653,-0.3651,-0.365,-0.3649,0,0,-0.3839,-0.3812,-0.3821,-0.3817,-0.3801,-0.3811,-0.383,-0.3832,-0.3839,-0.3834,-0.3851,-0.3863,-0.3837,-0.3837,-0.3815,-0.3833,-0.3891,-0.3803,-0.3802,-0.3821,-0.3946,-0.3968,-0.398,-0.3873,-0.3874,-0.3875,-0.3947,0,-0.3912,-0.3944,-0.3915,-0.3953,-0.3965,-0.3922,-0.3939,-0.3931,-0.3916,-0.3924,-0.3907,-0.3917,-0.3882,-0.3881,-0.3897,-0.3881,-0.3916,-0.3875,-0.3889,-0.389,-0.3895,-0.3991,-0.4015,-0.4083,-0.3955,-0.3957,-0.3958,0,-0.4002,-0.4,-0.404,-0.402,-0.4024,-0.404,-0.4039,-0.4046,-0.4037,-0.4024,-0.4023,-0.3996,-0.4014,-0.3974,-0.4,-0.3972,-0.3976,-0.3968,-0.397,-0.3973,-0.393,-0.3998,-0.4104,-0.4115,-0.3971,-0.397,-0.3969,0,-0.4086,-0.4093,-0.4118,-0.4115,-0.4093,-0.4106,-0.4097,-0.4085,-0.4088,-0.4086,-0.4088,-0.4088,-0.409,-0.4091,-0.4065,-0.4038,-0.4094,-0.4052,-0.4085,-0.4086,-0.4101,-0.4101,-0.4211,-0.41,-0.41,-0.41,-0.4099,0,-0.4171,-0.4197,-0.4155,-0.4171,-0.4198,-0.4163,-0.4192,-0.4179,-0.4168,-0.4181,-0.4143,-0.4156,-0.4119,-0.4127,-0.4107,-0.4131,-0.4131,-0.4123,-0.4117,-0.4128,-0.4129,-0.4131,-0.4127,-0.4102,-0.4102,-0.4101,-0.4101,0,-0.4271,-0.4243,-0.4268,-0.4244,-0.4238,-0.426,-0.424,-0.4253,-0.4234,-0.4251,-0.4252,-0.4224,-0.4232,-0.4204,-0.4208,-0.4194,-0.4231,-0.4216,-0.4234,-0.4231,-0.4266,-0.4264,-0.4384,-0.4398,-0.4276,-0.4277,-0.4278,0,-0.4329,-0.4348,-0.4325,-0.433,-0.4323,-0.4332,-0.4334,-0.43,-0.4303,-0.4292,-0.4307,-0.4312,-0.4314,-0.4329,-0.4309,-0.4311,-0.4298,-0.4339,-0.4298,-0.4308,-0.43,-0.4301,-0.4303,-0.4349,-0.4351,-0.4352,-0.4353,0,-0.4435,-0.4419,-0.4423,-0.4422,-0.4425,-0.4423,-0.4418,-0.4424,-0.4387,-0.4393,-0.44,-0.4402,-0.4404,-0.441,-0.4408,-0.4399,-0.4371,-0.4365,-0.4373,-0.4385,-0.4395,-0.4392,-0.426,-0.4364,-0.4362,-0.4362,-0.4361,-0.4361,-0.4516,-0.4531,-0.4517,-0.4523,-0.4515,-0.4511,-0.4522,-0.4504,-0.4509,-0.4508,-0.4487,-0.4499,-0.4487,-0.4481,-0.4475,-0.4483,-0.4464,-0.4476,-0.4479,-0.4483,-0.449,-0.4392,-0.4483,-0.4482,-0.4482,-0.4482,-0.4482,0,-0.4622,-0.461,-0.4615,-0.4609,-0.4613,-0.4583,-0.4575,-0.4581,-0.4591,-0.4582,-0.4584,-0.4592,-0.4597,-0.4576,-0.4577,-0.4588,-0.4575,-0.459,-0.459,-0.4589,-0.4506,-0.45,-0.4601,-0.4601,-0.4601,-0.4601,-0.4601,-0.4601,-0.4677,-0.4701,-0.4684,-0.4703,-0.4691,-0.4701,-0.4699,-0.4695,-0.4688,-0.4698,-0.4701,-0.4687,-0.4673,-0.4673,-0.4676,-0.4669,-0.4673,-0.4692,-0.4682,-0.4606,-0.4595,-0.4584,-0.4577,-0.4693,-0.4693,-0.4764,-0.4764,-0.4765]},{"header":{"parameterUnit":"m.s-1","parameterCategory":1,"la1":30.2991,"la2":30.254,"lo1":-89.0895,"lo2":-89.0444,"dy":0.0017,"dx":0.0017,"nx":28,"ny":28,"refTime":"2025-01-25T03:00:00:Z","depth":0,"parameterNumber":3,"parameterNumberName":"V-component_of_WINDS"},"data":[0,0,0,0,0,0,0,0,0,0,0,0,0,0,0,0,0,0,0,0,0,0,0,0,0,0,0,0,0,0,0,0,0,0,0,0,0,0,0,0,0,0,0,0,0,0,0,0,0,0,0,0,0,0,0,0,0,0,-4.4417,-4.4419,0,-4.4617,-4.4619,-4.4621,-4.4568,-4.4564,-4.456,-4.4557,-4.4759,-4.4767,-4.4776,0,0,0,0,0,0,0,0,0,0,0,0,0,-4.3987,-4.3995,-4.4417,-4.4419,-4.4422,-4.4616,-4.4619,-4.4622,-4.4569,-4.4564,-4.4559,-4.4555,-4.4756,-4.4766,-4.4777,0,0,0,0,0,0,0,0,0,0,0,0,0,-4.4179,-4.3998,-4.4416,-4.4419,-4.4421,-4.4616,-4.4619,-4.4623,-4.457,-4.4564,-4.4558,-4.4553,-4.4752,-4.4765,-4.4779,-4.4982,0,0,-4.482,-4.4826,0,0,0,0,0,0,0,0,-4.4168,-4.4195,-4.4416,-4.4419,-4.4422,-4.4562,-4.4542,-4.4743,-4.4572,-4.4514,-4.4557,-4.455,-4.4698,-4.4715,-4.4766,-4.4992,-4.5,-4.4822,-4.483,-4.4836,-4.484,0,0,0,0,0,0,0,-4.4155,-4.4186,-4.4496,-4.4419,-4.4423,-4.4409,-4.443,-4.458,-4.4636,-4.4518,-4.4515,-4.4539,-4.4698,-4.4753,-4.477,-4.5003,-4.4821,-4.4833,-4.4842,-4.4847,-4.5407,-4.5414,0,0,0,0,0,0,-4.414,-4.4175,-4.4489,-4.4502,-4.4278,-4.4422,-4.4445,-4.4523,-4.4635,-4.4646,-4.4544,-4.4536,-4.4733,-4.4754,-4.4777,-4.5024,-4.4836,-4.4848,-4.4856,-4.5401,-4.5409,-4.5416,0,0,0,0,0,0,-4.4131,-4.4168,-4.4481,-4.4338,-4.4377,-4.4436,-4.4523,-4.453,-4.4585,-4.4655,-4.4664,-4.459,-4.4729,-4.4758,-4.4932,-4.503,-4.4854,-4.4867,-4.5393,-4.5403,-4.5413,-4.5519,0,0,0,0,0,0,-4.4119,-4.4165,-4.4244,-4.434,-4.4385,-4.4634,-4.4529,-4.4538,-4.4609,-4.46,-4.47,-4.4711,-4.4726,-4.4912,-4.4946,-4.5046,-4.4878,-4.5384,-4.5398,-4.5409,-4.5507,-4.5532,-4.5553,0,0,0,0,0,-4.4103,-4.4265,-4.4248,-4.4286,-4.4484,-4.464,-4.4665,-4.4681,-4.4617,-4.4696,-4.4741,-4.4708,-4.5014,-4.493,-4.4968,-4.5074,-4.5378,-4.5394,-4.5408,-4.5497,-4.5527,-4.5552,0,0,0,0,0,0,-4.4178,-4.4277,-4.426,-4.4457,-4.4541,-4.4631,-4.4731,-4.4712,-4.4814,-4.4801,-4.4815,-4.4838,-4.5017,-4.5062,-4.4967,-4.5277,-4.5187,-4.521,-4.5241,-4.527,-4.5293,-4.5278,-4.4889,0,0,0,0,0,-4.4217,-4.4336,-4.4416,-4.4583,-4.4626,-4.4672,-4.474,-4.4745,-4.4831,-4.4866,-4.4923,-4.5008,-4.5123,-4.5199,-4.5309,-4.5513,-4.5535,-4.5604,-4.5627,-4.5645,-4.5666,-4.5778,-4.5811,-4.5466,-4.5466,-4.5465,0,0,-4.4299,-4.4369,-4.4443,-4.46,-4.4665,-4.4788,-4.4701,-4.4834,-4.4926,-4.4886,-4.5055,-4.51,-4.5195,-4.5386,-4.5472,-4.5429,-4.5765,-4.5664,-4.5679,-4.5689,-4.5797,-4.583,-4.5859,-4.5476,-4.5474,-4.5473,0,0,-4.4513,-4.4577,-4.4724,-4.4791,-4.4891,-4.4921,-4.4956,-4.5049,-4.5079,-4.5248,-4.5221,-4.5329,-4.5527,-4.5597,-4.5658,-4.5899,-4.5873,-4.5934,-4.6053,-4.6163,-4.619,-4.6214,-4.6302,-4.6333,-4.5954,-4.5954,-4.5954,0,-4.4603,-4.4787,-4.4801,-4.4938,-4.5008,-4.4978,-4.5127,-4.5191,-4.5322,-4.5371,-4.532,-4.5569,-4.5631,-4.5838,-4.5897,-4.5947,-4.5988,-4.5923,-4.6185,-4.621,-4.6232,-4.6316,-4.6348,-4.5961,-4.596,-4.5959,-4.5959,0,-4.4894,-4.5022,-4.5128,-4.5257,-4.5339,-4.548,-4.5515,-4.5596,-4.5594,-4.5629,-4.5802,-4.5875,-4.6,-4.6049,-4.6048,-4.6257,-4.6228,-4.6181,-4.6091,-4.6272,-4.6351,-4.6383,-4.5971,-4.5968,-4.5966,-4.5965,0,0,-4.516,-4.5295,-4.5334,-4.5392,-4.5501,-4.5601,-4.5741,-4.5864,-4.5934,-4.6025,-4.6143,-4.6312,-4.6271,-4.634,-4.6346,-4.6442,-4.663,-4.6384,-4.6387,-4.6429,-4.6867,-4.6902,-4.6939,-4.6613,-4.6619,-4.6624,-4.6859,0,-4.5384,-4.5633,-4.5649,-4.5874,-4.5994,-4.5967,-4.609,-4.617,-4.6206,-4.6312,-4.6351,-4.6471,-4.6406,-4.6448,-4.6542,-4.6587,-4.6719,-4.657,-4.6723,-4.6729,-4.6702,-4.698,-4.7018,-4.7236,-4.689,-4.6895,-4.6899,0,-4.5679,-4.5781,-4.6018,-4.6111,-4.6162,-4.6272,-4.6387,-4.6488,-4.6578,-4.6598,-4.6676,-4.6669,-4.6813,-4.6717,-4.6915,-4.6814,-4.6877,-4.6909,-4.6918,-4.6934,-4.6826,-4.7005,-4.7306,-4.734,-4.6947,-4.6943,-4.694,0,-4.5852,-4.6047,-4.6215,-4.6266,-4.6378,-4.6456,-4.6507,-4.6591,-4.6664,-4.6764,-4.6812,-4.6927,-4.699,-4.7079,-4.7103,-4.7031,-4.7302,-4.7207,-4.7323,-4.7322,-4.7382,-4.7378,-4.77,-4.7421,-4.742,-4.7419,-4.7419,0,-4.6101,-4.6248,-4.6295,-4.6398,-4.6561,-4.6579,-4.674,-4.6785,-4.686,-4.6971,-4.6954,-4.7059,-4.7084,-4.7193,-4.7212,-4.7375,-4.7403,-4.7423,-4.7426,-4.7426,-4.7423,-4.7468,-4.7454,-4.7428,-4.7426,-4.7424,-4.7423,0,-4.6322,-4.6359,-4.6541,-4.6633,-4.6659,-4.6776,-4.6854,-4.6953,-4.6987,-4.7128,-4.7162,-4.7216,-4.7344,-4.7376,-4.7528,-4.7541,-4.7733,-4.7722,-4.7704,-4.7704,-4.7818,-4.7807,-4.8181,-4.8231,-4.7917,-4.792,-4.7923,0,-4.648,-4.6592,-4.6697,-4.6771,-4.6825,-4.6944,-4.702,-4.7041,-4.712,-4.7231,-4.7317,-4.7443,-4.7546,-4.7751,-4.7803,-4.792,-4.7912,-4.8034,-4.7929,-4.7925,-4.7915,-4.7909,-4.7921,-4.8055,-4.8058,-4.8061,-4.8063,0,-4.6757,-4.677,-4.6879,-4.6997,-4.7088,-4.7181,-4.7269,-4.7331,-4.7364,-4.7454,-4.7585,-4.7665,-4.7821,-4.7947,-4.8065,-4.8115,-4.8096,-4.8096,-4.8129,-4.813,-4.8116,-4.8127,-4.776,-4.8087,-4.8085,-4.8083,-4.8082,-4.8081,-4.6952,-4.7051,-4.7141,-4.7264,-4.7333,-4.7417,-4.7515,-4.7562,-4.7673,-4.7803,-4.7808,-4.7951,-4.8038,-4.8195,-4.8252,-4.8364,-4.8327,-4.8374,-4.8387,-4.8399,-4.841,-4.8097,-4.8385,-4.8385,-4.8384,-4.8383,-4.8383,0,-4.7229,-4.7286,-4.7399,-4.7525,-4.7622,-4.7595,-4.7692,-4.7775,-4.7902,-4.7986,-4.8087,-4.8239,-4.8361,-4.8422,-4.8543,-4.8621,-4.8615,-4.8652,-4.8648,-4.866,-4.8435,-4.8395,-4.8655,-4.8655,-4.8655,-4.8655,-4.8655,-4.8655,-4.7385,-4.7552,-4.7576,-4.7777,-4.7832,-4.7974,-4.8032,-4.8109,-4.8176,-4.8347,-4.8448,-4.8488,-4.8563,-4.869,-4.88,-4.8815,-4.8861,-4.8904,-4.8914,-4.8703,-4.8676,-4.8649,-4.8612,-4.8913,-4.8913,-4.913,-4.9132,-4.9133]}]]